Location: Lewisville
(33.0462°N, 96.9942°W)
Time: 12:26:11
(UTC-06:00)

Envisat - Pass Details

Date: 26 November 2019
Orbit: 764 x 766 km, 98.1° (Epoch: 21 January)

Event Time Altitude Azimuth Distance (km) Brightness Sun altitude
Rises 18:32:36 0° 167° (SSE) 3,215 6.3 -14.7°
Reaches altitude 10° 18:34:54 10° 167° (SSE) 2,293 5.5 -15.2°
Maximum altitude 18:39:58 88° 255° (WSW) 770 3.0 -16.2°
Drops below altitude 10° 18:45:04 10° 347° (NNW) 2,308 5.5 -17.3°
Sets 18:47:22 0° 348° (NNW) 3,238 6.2 -17.7°
